EW6155 Weather Reports


Display with metric or nautical units.
time (UTC)temp
F
wind
direction
speed
MPH
gust
MPH
rain 1hr
in
rain 24hr
in
rain mn
in
humidity
%
barometer
mb
20240416051142 40 84 4.0 15.0 0.00 0.00 0.00 46 1003.4
20240416050639 40 298 4.0 15.0 0.00 0.00 0.00 46 1003.5
20240416050140 40 250 4.0 19.0 0.00 0.00 0.00 46 1003.5
20240416045639 40 262 4.0 19.0 0.00 0.00 0.00 46 1003.5
20240416045138 40 301 3.0 11.0 0.00 0.00 0.00 46 1003.5
20240416044639 40 225 3.0 11.0 0.00 0.00 0.00 46 1003.6
20240416043644 40 129 1.0 8.0 0.00 0.00 0.00 47 1003.9
20240416043640 40 37 2.0 11.0 0.00 0.00 0.00 46 1003.7
20240416042639 40 24 2.0 10.0 0.00 0.00 0.00 47 1004.0
20240416042138 40 160 3.0 10.0 0.00 0.00 0.00 47 1004.1
20240416041653 40 321 2.0 13.0 0.00 0.00 0.00 47 1004.4
20240416041649 40 308 3.0 13.0 0.00 0.00 0.00 47 1004.1
20240416040639 40 186 2.0 5.0 0.00 0.00 0.00 47 1004.4
20240416040140 40 231 2.0 11.0 0.00 0.00 0.00 46 1004.5
20240416035638 40 46 3.0 11.0 0.00 0.00 0.00 46 1004.5
20240416035139 40 235 2.0 11.0 0.00 0.00 0.00 46 1004.6
20240416034638 40 181 2.0 8.0 0.00 0.00 0.00 46 1004.6
20240416034139 40 108 2.0 8.0 0.00 0.00 0.00 46 1004.5
20240416033643 40 238 3.0 11.0 0.00 0.00 0.00 45 1004.5
20240416033639 40 330 2.0 11.0 0.00 0.00 0.00 45 1004.5
20240416032641 40 267 1.0 7.0 0.00 0.00 0.00 44 1004.4
20240416032637 40 155 2.0 7.0 0.00 0.00 0.00 45 1004.4
20240416031637 40 155 2.0 7.0 0.00 0.00 0.00 44 1004.5
20240416031136 40 17 2.0 9.0 0.00 0.00 0.00 44 1004.4
20240416030642 41 300 2.0 9.0 0.00 0.00 0.00 43 1004.1
20240416030637 41 250 2.0 9.0 0.00 0.00 0.00 43 1004.2
20240416025637 41 259 3.0 13.0 0.00 0.00 0.00 42 1004.0
20240416025136 41 243 3.0 13.0 0.00 0.00 0.00 42 1004.0
20240416024637 41 143 4.0 16.0 0.00 0.00 0.00 42 1004.0
20240416024136 41 294 4.0 16.0 0.00 0.00 0.00 42 1003.7
20240416023636 41 56 2.0 10.0 0.00 0.00 0.00 43 1003.6
20240416023137 41 167 3.0 8.0 0.00 0.00 0.00 43 1003.7
20240416022636 41 241 3.0 11.0 0.00 0.00 0.00 43 1003.7
20240416022136 41 89 2.0 14.0 0.00 0.00 0.00 43 1003.7
20240416021635 42 238 3.0 14.0 0.00 0.00 0.00 43 1003.9
20240416021134 42 242 4.0 11.0 0.00 0.00 0.00 43 1004.0
20240416020639 42 141 3.0 9.0 0.00 0.00 0.00 43 1003.9
20240416020635 42 84 4.0 11.0 0.00 0.00 0.00 42 1003.9
20240416015638 42 242 3.0 12.0 0.00 0.00 0.00 44 1004.0
20240416015634 42 139 3.0 12.0 0.00 0.00 0.00 44 1003.9
20240416014635 42 290 3.0 10.0 0.00 0.00 0.00 44 1004.0
20240416014135 43 307 3.0 11.0 0.00 0.00 0.00 43 1003.9
20240416013634 44 336 3.0 11.0 0.00 0.00 0.00 42 1004.0
20240416013135 44 44 3.0 12.0 0.00 0.00 0.00 41 1003.9
20240416012634 44 136 3.0 12.0 0.00 0.00 0.00 41 1003.7
20240416012133 45 67 3.0 9.0 0.00 0.00 0.00 41 1003.7
20240416011633 45 124 3.0 13.0 0.00 0.00 0.00 40 1003.7
20240416011130 45 241 3.0 13.0 0.00 0.00 0.00 40 1003.6
20240416010631 45 324 3.0 11.0 0.00 0.00 0.00 40 1003.6
20240416010129 46 259 4.0 14.0 0.00 0.00 0.00 39 1003.6
20240416005628 46 15 5.0 18.0 0.00 0.00 0.00 38 1003.6
20240416005129 46 141 6.0 18.0 0.00 0.00 0.00 39 1003.5
20240416004629 46 304 5.0 16.0 0.00 0.00 0.00 40 1003.5
20240416004128 47 243 4.0 13.0 0.00 0.00 0.00 40 1003.4
20240416003629 47 191 5.0 19.0 0.00 0.00 0.00 39 1003.4
20240416003129 48 214 5.0 19.0 0.00 0.00 0.00 38 1003.1
20240416002628 48 322 4.0 19.0 0.00 0.00 0.00 36 1003.0
20240416002129 49 108 4.0 19.0 0.00 0.00 0.00 34 1003.0
20240416001628 50 343 3.0 14.0 0.00 0.00 0.00 33 1002.7
20240416001129 50 271 3.0 13.0 0.00 0.00 0.00 30 1002.6
20240416000629 51 63 2.0 9.0 0.00 0.00 0.00 25 1002.5
20240416000129 51 340 3.0 9.0 0.00 0.00 0.00 30 1002.5
20240415235628 52 291 3.0 10.0 0.00 0.00 0.00 28 1002.4
20240415235128 53 195 3.0 10.0 0.00 0.00 0.00 23 1002.4
20240415234633 53 255 1.0 5.0 0.00 0.00 0.00 16 1002.1
20240415234629 53 250 2.0 10.0 0.00 0.00 0.00 15 1002.2
20240415233626 53 260 1.0 6.0 0.00 0.00 0.00 18 1002.1
20240415233136 53 271 2.0 10.0 0.00 0.00 0.00 17 1002.0
20240415232627 54 278 2.0 10.0 0.00 0.00 0.00 16 1002.0
20240415232124 54 117 2.0 14.0 0.00 0.00 0.00 16 1002.0
20240415231623 54 240 3.0 14.0 0.00 0.00 0.00 14 1002.0
20240415231123 55 134 3.0 9.0 0.00 0.00 0.00 14 1001.9
20240415230621 55 125 3.0 10.0 0.00 0.00 0.00 13 1002.0
20240415230121 56 252 4.0 10.0 0.00 0.00 0.00 13 1002.0
20240415225622 56 214 4.0 15.0 0.00 0.00 0.00 14 1001.7
20240415225121 57 233 4.0 15.0 0.00 0.00 0.00 13 1001.7
20240415224621 57 203 5.0 17.0 0.00 0.00 0.00 13 1001.6
20240415224129 58 269 4.0 17.0 0.00 0.00 0.00 13 1001.7
20240415223621 58 126 4.0 13.0 0.00 0.00 0.00 13 1001.6
20240415223121 58 246 6.0 15.0 0.00 0.00 0.00 13 1001.6
20240415222621 58 207 5.0 15.0 0.00 0.00 0.00 12 1001.6
20240415222121 58 114 5.0 22.0 0.00 0.00 0.00 13 1001.5
20240415221620 58 284 5.0 22.0 0.00 0.00 0.00 12 1001.5
20240415221122 58 290 5.0 19.0 0.00 0.00 0.00 12 1001.6
20240415220621 58 260 6.0 19.0 0.00 0.00 0.00 12 1001.5
20240415215618 58 218 7.0 22.0 0.00 0.00 0.00 12 1001.6
20240415214617 59 113 6.0 21.0 0.00 0.00 0.00 10 1001.4
20240415214117 59 214 6.0 19.0 0.00 0.00 0.00 11 1001.4
20240415213616 59 305 6.0 19.0 0.00 0.00 0.00 12 1001.4
20240415213117 58 220 4.0 14.0 0.00 0.00 0.00 13 1001.4
20240415212620 58 346 3.0 14.0 0.00 0.00 0.00 13 1001.6
20240415212616 58 283 3.0 10.0 0.00 0.00 0.00 13 1001.5
20240415211117 57 256 5.0 20.0 0.00 0.00 0.00 13 1001.7
20240415210627 58 259 5.0 15.0 0.00 0.00 0.00 13 1001.7
20240415210617 57 252 5.0 20.0 0.00 0.00 0.00 13 1001.7
20240415205616 58 264 5.0 15.0 0.00 0.00 0.00 12 1001.9
20240415205120 57 298 6.0 23.0 0.00 0.00 0.00 12 1002.0
20240415205116 58 148 6.0 23.0 0.00 0.00 0.00 13 1001.9
20240415204117 58 200 8.0 21.0 0.00 0.00 0.00 12 1002.1
20240415203616 58 152 6.0 21.0 0.00 0.00 0.00 11 1002.2
20240415203116 58 236 3.0 12.0 0.00 0.00 0.00 12 1001.9
20240415202616 58 93 3.0 12.0 0.00 0.00 0.00 14 1002.0
20240415202116 58 253 3.0 15.0 0.00 0.00 0.00 13 1002.1
20240415201614 58 246 4.0 15.0 0.00 0.00 0.00 13 1002.4
20240415201114 59 265 4.0 14.0 0.00 0.00 0.00 13 1002.4
20240415200614 60 152 4.0 12.0 0.00 0.00 0.00 13 1002.5
20240415200113 60 248 4.0 12.0 0.00 0.00 0.00 13 1002.4
20240415195615 60 233 5.0 17.0 0.00 0.00 0.00 12 1002.4
20240415195114 61 129 5.0 17.0 0.00 0.00 0.00 12 1002.5
20240415194619 62 139 6.0 16.0 0.00 0.00 0.00 11 1002.7
20240415194614 62 281 5.0 16.0 0.00 0.00 0.00 12 1002.7
20240415193611 62 232 6.0 14.0 0.00 0.00 0.00 10 1002.6
20240415193112 61 286 6.0 21.0 0.00 0.00 0.00 11 1002.6
20240415192612 62 143 6.0 21.0 0.00 0.00 0.00 11 1002.7
20240415192113 62 232 6.0 18.0 0.00 0.00 0.00 12 1002.6
20240415191612 61 286 5.0 17.0 0.00 0.00 0.00 11 1002.5
20240415191216 63 154 6.0 20.0 0.00 0.00 0.00 12 1002.7
20240415190112 62 349 6.0 15.0 0.00 0.00 0.00 10 1002.6
20240415185612 63 317 7.0 15.0 0.00 0.00 0.00 9 1002.9
20240415185115 62 232 7.0 17.0 0.00 0.00 0.00 10 1003.0
20240415185110 62 220 6.0 16.0 0.00 0.00 0.00 11 1002.7
20240415184111 62 250 6.0 18.0 0.00 0.00 0.00 11 1003.0
20240415183609 62 314 5.0 18.0 0.00 0.00 0.00 11 1003.1
20240415183115 63 128 5.0 15.0 0.00 0.00 0.00 13 1003.4
20240415183111 63 297 4.0 13.0 0.00 0.00 0.00 12 1003.2
20240415182110 62 232 6.0 15.0 0.00 0.00 0.00 12 1003.4
20240415181610 62 256 5.0 15.0 0.00 0.00 0.00 12 1003.4
20240415181110 62 275 6.0 18.0 0.00 0.00 0.00 13 1003.6
20240415180609 62 193 6.0 18.0 0.00 0.00 0.00 12 1003.6
20240415180118 62 150 5.0 12.0 0.00 0.00 0.00 12 1003.9
20240415175608 62 252 5.0 13.0 0.00 0.00 0.00 12 1004.0
20240415175108 62 243 5.0 18.0 0.00 0.00 0.00 12 1004.1
20240415174609 62 158 6.0 18.0 0.00 0.00 0.00 12 1004.5
20240415174108 61 207 7.0 17.0 0.00 0.00 0.00 13 1004.6
20240415173607 61 295 5.0 17.0 0.00 0.00 0.00 14 1004.6
20240415173110 62 195 3.0 11.0 0.00 0.00 0.00 13 1004.6
20240415172613 61 132 5.0 15.0 0.00 0.00 0.00 14 1004.9
20240415172609 61 300 5.0 15.0 0.00 0.00 0.00 14 1004.9
20240415171608 62 115 3.0 14.0 0.00 0.00 0.00 14 1005.0
20240415171118 60 314 5.0 13.0 0.00 0.00 0.00 15 1005.2
20240415171109 60 271 4.0 14.0 0.00 0.00 0.00 16 1005.1
20240415170108 60 208 5.0 13.0 0.00 0.00 0.00 15 1005.4
20240415165608 60 194 5.0 14.0 0.00 0.00 0.00 16 1005.5
20240415165113 60 210 6.0 14.0 0.00 0.00 0.00 14 1005.9
20240415165109 59 153 6.0 14.0 0.00 0.00 0.00 17 1005.9
20240415164712 60 116 5.0 15.0 0.00 0.00 0.00 15 1005.9
20240415163608 60 231 5.0 15.0 0.00 0.00 0.00 15 1005.9
20240415163108 59 228 5.0 20.0 0.00 0.00 0.00 16 1005.9
20240415162610 60 277 5.0 20.0 0.00 0.00 0.00 14 1005.9
20240415162107 59 231 5.0 19.0 0.00 0.00 0.00 15 1006.0
20240415161620 60 284 5.0 12.0 0.00 0.00 0.00 14 1006.2
20240415161609 59 180 6.0 19.0 0.00 0.00 0.00 15 1006.1
20240415160617 59 210 5.0 13.0 0.00 0.00 0.00 14 1006.1
20240415160114 59 185 3.0 15.0 0.00 0.00 0.00 16 1006.1
20240415160110 59 96 4.0 15.0 0.00 0.00 0.00 15 1006.4
20240415155109 60 307 2.0 7.0 0.00 0.00 0.00 15 1006.4
20240415154615 60 223 2.0 8.0 0.00 0.00 0.00 16 1006.5
20240415154610 60 160 2.0 7.0 0.00 0.00 0.00 16 1006.2
20240415153603 59 142 3.0 8.0 0.00 0.00 0.00 19 1006.6
20240415153103 59 123 4.0 10.0 0.00 0.00 0.00 17 1006.6
20240415152606 59 167 4.0 13.0 0.00 0.00 0.00 17 1006.9
20240415152602 59 207 4.0 10.0 0.00 0.00 0.00 18 1006.6
20240415151601 59 238 4.0 13.0 0.00 0.00 0.00 19 1006.9
20240415151101 59 184 3.0 10.0 0.00 0.00 0.00 18 1006.7
20240415150601 59 231 3.0 10.0 0.00 0.00 0.00 18 1006.9
20240415150103 59 219 3.0 10.0 0.00 0.00 0.00 19 1006.9
20240415145601 59 226 3.0 10.0 0.00 0.00 0.00 19 1006.9
20240415145102 59 253 2.0 8.0 0.00 0.00 0.00 18 1007.0
20240415144101 59 231 2.0 6.0 0.00 0.00 0.00 20 1007.1
20240415143606 58 148 2.0 7.0 0.00 0.00 0.00 21 1007.2
20240415143601 58 94 2.0 7.0 0.00 0.00 0.00 21 1007.1
20240415142601 58 70 1.0 4.0 0.00 0.00 0.00 25 1007.4
20240415142058 57 108 1.0 3.0 0.00 0.00 0.00 24 1007.4
20240415141558 57 179 0.0 1.0 0.00 0.00 0.00 28 1007.5
20240415141059 54 107 0.0 1.0 0.00 0.00 0.00 32 1007.7
20240415141055 56 251 0.0 1.0 0.00 0.00 0.00 27 1007.5
20240415140657 53 110 1.0 3.0 0.00 0.00 0.00 34 1007.7
20240415135553 52 69 1.0 3.0 0.00 0.00 0.00 32 1007.7
20240415135055 53 93 0.0 2.0 0.00 0.00 0.00 33 1007.7
20240415134553 53 189 0.0 1.0 0.00 0.00 0.00 31 1007.7
20240415134054 51 229 0.0 2.0 0.00 0.00 0.00 32 1007.7
20240415133554 51 229 0.0 2.0 0.00 0.00 0.00 35 1007.9
20240415133053 50 323 0.0 0.0 0.00 0.00 0.00 36 1007.9
20240415132554 50 337 0.0 0.0 0.00 0.00 0.00 34 1007.9
20240415132053 49 338 0.0 0.0 0.00 0.00 0.00 31 1007.9
20240415131551 47 338 0.0 1.0 0.00 0.00 0.00 32 1007.9
20240415131051 46 338 0.0 1.0 0.00 0.00 0.00 33 1007.9
20240415130552 46 284 0.0 0.0 0.00 0.00 0.00 33 1007.9
20240415130101 45 284 0.0 0.0 0.00 0.00 0.00 31 1007.9
20240415125556 44 285 0.0 1.0 0.00 0.00 0.00 31 1007.9
20240415125552 44 284 0.0 0.0 0.00 0.00 0.00 31 1007.9
20240415124551 43 285 0.0 2.0 0.00 0.00 0.00 31 1007.9
20240415124051 43 298 0.0 3.0 0.00 0.00 0.00 31 1007.9
20240415123551 42 215 0.0 3.0 0.00 0.00 0.00 30 1007.9
20240415123053 43 270 0.0 1.0 0.00 0.00 0.00 30 1007.9
20240415123049 42 270 0.0 1.0 0.00 0.00 0.00 30 1007.9
20240415122049 42 270 0.0 1.0 0.00 0.00 0.00 30 1008.0
20240415121549 42 264 0.0 1.0 0.00 0.00 0.00 30 1008.0
20240415121049 42 257 0.0 1.0 0.00 0.00 0.00 30 1007.9
20240415120549 42 263 0.0 1.0 0.00 0.00 0.00 31 1008.0
20240415120056 42 243 0.0 0.0 0.00 0.00 0.00 30 1008.0
20240415115549 43 239 0.0 0.0 0.00 0.00 0.00 30 1008.0
20240415115049 44 235 0.0 0.0 0.00 0.00 0.00 29 1008.0
20240415114552 46 235 0.0 1.0 0.00 0.00 0.00 27 1008.1
20240415114548 45 234 0.0 0.0 0.00 0.00 0.00 29 1008.1
20240415113547 47 145 0.0 1.0 0.00 0.00 0.00 27 1008.1
20240415113047 48 315 0.0 1.0 0.00 0.00 0.00 25 1008.1
20240415112548 49 214 0.0 3.0 0.00 0.00 0.00 23 1008.1
20240415112047 49 265 0.0 3.0 0.00 0.00 0.00 23 1008.1
20240415111545 49 289 0.0 3.0 0.00 0.00 0.00 23 1008.1
20240415111054 50 191 0.0 4.0 0.00 0.00 0.00 22 1008.2
20240415110545 50 290 0.0 4.0 0.00 0.00 0.00 22 1008.2
20240415110052 50 212 0.0 3.0 0.00 0.00 0.00 22 1008.2
20240415105542 51 253 0.0 3.0 0.00 0.00 0.00 21 1008.4
20240415105041 51 271 0.0 3.0 0.00 0.00 0.00 20 1008.4
20240415104541 52 285 1.0 5.0 0.00 0.00 0.00 20 1008.4
20240415104045 53 248 2.0 6.0 0.00 0.00 0.00 19 1008.2
20240415104041 53 304 1.0 6.0 0.00 0.00 0.00 19 1008.4
20240415103645 53 249 1.0 6.0 0.00 0.00 0.00 19 1008.4
20240415103144 53 262 1.0 4.0 0.00 0.00 0.00 19 1008.4
20240415102042 53 320 1.0 4.0 0.00 0.00 0.00 18 1008.2
20240415101538 54 300 2.0 6.0 0.00 0.00 0.00 18 1008.4
20240415101039 54 188 2.0 7.0 0.00 0.00 0.00 18 1008.4
20240415100539 54 308 2.0 8.0 0.00 0.00 0.00 17 1008.5
20240415100049 55 297 3.0 9.0 0.00 0.00 0.00 17 1008.5
20240415095539 54 293 3.0 9.0 0.00 0.00 0.00 18 1008.5
20240415095039 53 224 2.0 9.0 0.00 0.00 0.00 18 1008.6
20240415094538 52 295 1.0 6.0 0.00 0.00 0.00 20 1008.7
20240415094038 52 67 1.0 6.0 0.00 0.00 0.00 21 1008.7
20240415093539 52 86 1.0 6.0 0.00 0.00 0.00 19 1008.7
20240415093039 51 316 1.0 5.0 0.00 0.00 0.00 20 1008.7
20240415092538 50 321 1.0 6.0 0.00 0.00 0.00 22 1008.7
20240415092039 50 229 1.0 6.0 0.00 0.00 0.00 22 1008.9
20240415091538 49 300 1.0 6.0 0.00 0.00 0.00 21 1008.9
20240415091039 49 326 1.0 6.0 0.00 0.00 0.00 22 1008.7
20240415090539 48 255 1.0 6.0 0.00 0.00 0.00 22 1008.6
20240415090048 47 27 0.0 3.0 0.00 0.00 0.00 23 1008.7
20240415085548 48 298 0.0 2.0 0.00 0.00 0.00 24 1008.7
20240415085048 49 312 1.0 3.0 0.00 0.00 0.00 24 1008.9
20240415084538 51 359 1.0 10.0 0.00 0.00 0.00 23 1009.0
20240415084039 51 278 2.0 10.0 0.00 0.00 0.00 20 1009.0
20240415083538 50 259 1.0 6.0 0.00 0.00 0.00 21 1009.1
20240415083039 49 330 1.0 5.0 0.00 0.00 0.00 20 1009.4
20240415082538 49 316 1.0 5.0 0.00 0.00 0.00 21 1009.5
20240415082038 48 239 0.0 4.0 0.00 0.00 0.00 21 1009.5
20240415081537 46 276 0.0 2.0 0.00 0.00 0.00 23 1009.5
20240415081036 45 231 0.0 2.0 0.00 0.00 0.00 26 1009.7
20240415080545 47 279 0.0 3.0 0.00 0.00 0.00 24 1009.9
20240415080534 46 310 0.0 1.0 0.00 0.00 0.00 24 1009.7
20240415075534 48 263 0.0 3.0 0.00 0.00 0.00 21 1010.0
20240415075035 48 321 0.0 2.0 0.00 0.00 0.00 21 1010.0
20240415074535 49 249 1.0 2.0 0.00 0.00 0.00 21 1010.1
20240415074039 49 273 0.0 1.0 0.00 0.00 0.00 21 1010.2
20240415074035 49 279 0.0 2.0 0.00 0.00 0.00 21 1010.2
20240415073036 49 270 0.0 1.0 0.00 0.00 0.00 21 1010.4
20240415072534 50 273 0.0 2.0 0.00 0.00 0.00 21 1010.5
20240415072034 51 274 0.0 2.0 0.00 0.00 0.00 21 1010.6
20240415071533 51 276 0.0 2.0 0.00 0.00 0.00 20 1010.6
20240415071031 51 232 0.0 2.0 0.00 0.00 0.00 20 1010.6
20240415070531 51 281 0.0 2.0 0.00 0.00 0.00 20 1010.9
20240415070044 52 285 0.0 2.0 0.00 0.00 0.00 20 1010.9
20240415070041 52 302 0.0 2.0 0.00 0.00 0.00 20 1010.9
20240415065031 52 307 0.0 3.0 0.00 0.00 0.00 20 1010.9
20240415064531 53 212 1.0 5.0 0.00 0.00 0.00 21 1011.1
20240415064034 53 284 0.0 2.0 0.00 0.00 0.00 22 1011.2
20240415064030 52 286 0.0 5.0 0.00 0.00 0.00 22 1011.1
20240415063028 53 260 0.0 2.0 0.00 0.00 0.00 23 1011.4
20240415062528 54 279 1.0 5.0 0.00 0.00 0.00 22 1011.4
20240415062026 54 280 1.0 5.0 0.00 0.00 0.00 21 1011.4
20240415061527 54 284 0.0 5.0 0.00 0.00 0.00 21 1011.4
20240415061027 54 246 1.0 4.0 0.00 0.00 0.00 22 1011.5
20240415060526 54 305 1.0 4.0 0.00 0.00 0.00 22 1011.5
20240415060036 54 257 1.0 4.0 0.00 0.00 0.00 23 1011.6
20240415055530 54 285 1.0 3.0 0.00 0.00 0.00 24 1011.7
20240415055526 54 294 1.0 3.0 0.00 0.00 0.00 23 1011.6
20240415054524 54 284 1.0 4.0 0.00 0.00 0.00 24 1011.7
20240415054024 54 303 1.0 4.0 0.00 0.00 0.00 23 1011.6
20240415053524 55 267 1.0 3.0 0.00 0.00 0.00 24 1011.7
20240415053024 55 317 1.0 4.0 0.00 0.00 0.00 23 1011.7
20240415052524 55 300 1.0 4.0 0.00 0.00 0.00 23 1011.7
20240415052024 55 286 1.0 4.0 0.00 0.00 0.00 23 1012.0